Andrews AFB, MD

4:11 PM EST on November 24, 2017 (GMT -0500)
Andrews Air Force Base-Naf

Weather History for KADW - February, 2013

Change the Weather History Date:

Thursday, February 14, 2013

  Actual Average Record
Temperature  
Mean Temperature 40 °F -  
Max Temperature 48 °F 45 °F 64 °F (2011)
Min Temperature 33 °F 26 °F 11 °F (2016)
Degree Days  
Heating Degree Days 24    
Moisture  
Dew Point 30 °F    
Average Humidity 78    
Maximum Humidity 100    
Minimum Humidity 36    
Precipitation  
Precipitation 0.00 in - - ()
Sea Level Pressure  
Sea Level Pressure 29.92 in    
Wind  
Wind Speed 5 mph (West)    
Max Wind Speed 13 mph    
Max Gust Speed -    
Visibility 8 miles    
Events      
Averages and records for this station are not official NWS values.
T = Trace of Precipitation, MM = Missing Value Source: NWS Daily Summary

Daily Weather History Graph

Daily Weather History Graph

Search for Another Location

Airport or City:

Trip Planner

Search our weather history database for the weather conditions in past years. The results will help you decide how hot, cold, wet, or windy it might be!

Date:

Astronomy

Feb. 14, 2013 Rise Set
Actual Time 6:59 AM EST 5:44 PM EST
Civil Twilight 6:32 AM EST 6:11 PM EST
Nautical Twilight 6:01 AM EST 6:42 PM EST
Astronomical Twilight 5:30 AM EST 7:13 PM EST
Moon 9:03 AM EST (2/14) 10:41 PM EST (2/14)
Length of Visible Light 11h 39m
Length of Day
10h 44m
Waxing Crescent, 21% of the Moon is Illuminated
Feb 14
Waxing Crescent
Feb 17
First Quarter
Feb 25
Full
Mar 4
Last Quarter
Mar 11
New

Hourly Weather History & Observations

Time (EST) Temp. Windchill Dew Point Humidity Pressure Visibility Wind Dir Wind Speed Gust Speed Precip Events Conditions
12:55 AM 35.2 °F 30.3 °F 33.6 °F 94% 29.80 in 6.0 mi WNW 5.8 mph - N/A   Overcast
1:03 AM 35.6 °F 30.7 °F 33.8 °F 93% 29.81 in 7.0 mi WNW 5.8 mph - N/A   Overcast
1:10 AM 35.6 °F 30.7 °F 33.8 °F 93% 29.81 in 7.0 mi WNW 5.8 mph - N/A   Overcast
1:16 AM 35.6 °F 30.7 °F 33.8 °F 93% 29.81 in 7.0 mi WNW 5.8 mph - N/A   Overcast
1:19 AM 35.6 °F 29.9 °F 33.8 °F 93% 29.81 in 7.0 mi NW 6.9 mph - N/A   Overcast
1:30 AM 35.6 °F 31.7 °F 33.8 °F 93% 29.82 in 7.0 mi WNW 4.6 mph - N/A   Mostly Cloudy
1:50 AM 35.6 °F 31.7 °F 33.8 °F 93% 29.83 in 5.0 mi WNW 4.6 mph - N/A   Mostly Cloudy
1:55 AM 34.9 °F 30.8 °F 33.4 °F 94% 29.84 in 5.0 mi WNW 4.6 mph - N/A   Overcast
1:59 AM 35.6 °F 29.9 °F 33.8 °F 93% 29.84 in 5.0 mi West 6.9 mph - N/A   Overcast
2:05 AM 35.6 °F 30.7 °F 33.8 °F 93% 29.84 in 6.0 mi West 5.8 mph - N/A   Overcast
2:16 AM 35.6 °F - 33.8 °F 93% 29.84 in 6.0 mi Calm Calm - N/A   Mostly Cloudy
2:25 AM 33.8 °F - 32.0 °F 93% 29.85 in 6.0 mi Calm Calm - N/A   Scattered Clouds
2:30 AM 33.8 °F 30.8 °F 32.0 °F 93% 29.85 in 6.0 mi WSW 3.5 mph - N/A   Mostly Cloudy
2:37 AM 33.8 °F - 32.0 °F 93% 29.85 in 6.0 mi Calm Calm - N/A   Mostly Cloudy
2:42 AM 33.8 °F 30.8 °F 33.8 °F 100% 29.85 in 6.0 mi SW 3.5 mph - N/A   Mostly Cloudy
2:55 AM 34.0 °F 29.8 °F 32.7 °F 95% 29.85 in 6.0 mi SSW 4.6 mph - N/A   Overcast
3:06 AM 33.8 °F 29.6 °F 32.0 °F 93% 29.85 in 6.0 mi WSW 4.6 mph - N/A   Scattered Clouds
3:55 AM 34.2 °F 30.0 °F 32.4 °F 93% 29.88 in 8.0 mi West 4.6 mph - N/A   Clear
4:55 AM 34.5 °F 28.6 °F 32.2 °F 91% 29.90 in 8.0 mi WNW 6.9 mph - N/A   Clear
5:55 AM 33.8 °F 28.6 °F 31.5 °F 91% 29.93 in 9.0 mi WNW 5.8 mph - N/A   Clear
6:55 AM 34.9 °F 29.0 °F 29.3 °F 80% 29.95 in 10.0 mi WNW 6.9 mph - N/A   Clear
7:55 AM 35.4 °F 30.5 °F 28.6 °F 76% 29.98 in 10.0 mi NW 5.8 mph - N/A   Clear
8:55 AM 38.1 °F 32.3 °F 28.6 °F 69% 30.01 in 10.0 mi NW 8.1 mph - N/A   Clear
9:55 AM 40.1 °F 32.7 °F 28.0 °F 62% 30.02 in 10.0 mi NNW 12.7 mph - N/A   Clear
10:55 AM 41.9 °F 35.4 °F 27.1 °F 56% 30.03 in 10.0 mi WNW 11.5 mph - N/A   Clear
11:55 AM 43.7 °F 41.1 °F 26.6 °F 51% 30.02 in 10.0 mi Variable 4.6 mph - N/A   Clear
12:55 PM 45.0 °F 41.8 °F 25.9 °F 47% 30.00 in 10.0 mi West 5.8 mph - N/A   Clear
1:55 PM 46.6 °F - 20.5 °F 36% 29.99 in 10.0 mi Variable 4.6 mph - N/A   Clear
2:55 PM 47.5 °F - 24.3 °F 40% 29.99 in 10.0 mi Variable 4.6 mph - N/A   Clear
3:55 PM 48.0 °F - 24.1 °F 39% 29.99 in 10.0 mi Variable 6.9 mph - N/A   Clear
4:55 PM 47.3 °F - 24.3 °F 40% 29.99 in 10.0 mi SW 4.6 mph - N/A   Clear
5:55 PM 44.2 °F 41.0 °F 23.4 °F 44% 30.00 in 10.0 mi South 5.8 mph - N/A   Clear
6:55 PM 36.7 °F 32.0 °F 27.3 °F 69% 30.01 in 10.0 mi ESE 5.8 mph - N/A   Clear
7:55 PM 37.4 °F 33.8 °F 26.4 °F 65% 30.02 in 10.0 mi SE 4.6 mph - N/A   Clear
8:55 PM 34.5 °F 28.6 °F 26.6 °F 73% 30.03 in 10.0 mi SSE 6.9 mph - N/A   Clear
9:55 PM 35.1 °F 28.6 °F 27.7 °F 74% 30.03 in 10.0 mi South 8.1 mph - N/A   Clear
10:55 PM 35.2 °F 29.5 °F 29.1 °F 78% 30.02 in 10.0 mi SSE 6.9 mph - N/A   Clear
11:55 PM 36.7 °F 29.9 °F 30.9 °F 80% 30.03 in 10.0 mi South 9.2 mph - N/A   Clear